Charlestown, MA

2:05 PM EST on January 21, 2017 (GMT -0500)
Charlestown | | Change Station
Active Advisory: Gale Watch

Elev 46 ft 42.37 °N, 71.06 °W | Updated 14 seconds ago

Partly Cloudy
Partly Cloudy
54.0 °F
Feels Like 54.0 °F
N
5.1
Wind Variable Wind from West
Gusts 7.4 mph

Today
High -- | Low -- °F
--% Chance of Precip.
Yesterday
High -- | Low -- °F
Precip. -- in
Pressure 29.74 in
Visibility 10.0 miles
Clouds Few 3000 ft
Few 7500 ft
Few 20000 ft
Dew Point 38 °F
Humidity 55%
Rainfall 0.00 in
Snow Depth Not available.
7:07 AM 4:44 PM
Waning Crescent, 33% visible
METAR KBOS 211854Z 25005KT 10SM FEW030 FEW075 FEW200 11/06 A2974 RMK AO2 SLP070 T01110056
Pressure 29.74 in
Visibility 10.0 miles
Clouds Few 3000 ft
Few 7500 ft
Few 20000 ft
Dew Point 38 °F
Humidity 55%
Rainfall 0.00 in
Snow Depth Not available.
7:07 AM 4:44 PM
Waning Crescent, 33% visible
METAR KBOS 211854Z 25005KT 10SM FEW030 FEW075 FEW200 11/06 A2974 RMK AO2 SLP070 T01110056

Get Your Daily Forecast Email!

Thanks for signing up!

Be on the lookout for a verification email in your inbox.

You'll start receiving the daily forecast at 8 AM.

×

10-Day Weather Forecast

Almanac

Astronomy

Jan. 21, 2017 Rise Set
Actual Time
Civil Twilight
Nautical Twilight
Astronomical Twilight
Moon
Length of Visible Light
Length of Day
Tomorrow will be .
, % of the Moon is Illuminated

Today's Extremes

State Highs State Lows

Community

WunderPhotos

Upload Photos

1,962,540 photos uploaded!

WunderBlog® & News

Nearby

Air Quality

  Air Quality AQ Index Pollutant
Not available.

Snow Depth

Station Depth Elevation

Earthquake Activity

City Distance Mag. Time & Date
Minimum magnitude displayed is 2.5.

Coastal Water Temperatures

Place Temperature

Stations

Nearby Weather Stations

Station Location Temp. Windchill Dew Point Humidity Wind Precip. Elev Updated Type
                   

Watches & Warnings

Gale Watch
Issued: 10:47 AM EST Jan. 21, 2017 – National Weather Service

... Gale watch remains in effect from Monday morning through late
Monday night...

* winds and seas... east winds 25 to 35 kt with gusts up to 40
kt. Seas 4 to 7 feet.

Precautionary/preparedness actions...

A gale watch is issued when the risk of gale force winds of 34 to
47 knots has significantly increased... but the specific timing
and/or location is still uncertain. It is intended to provide
additional lead time for mariners who may wish to consider
altering their plans.